Terminal Aerodrome Forecast
Issued by NWS

Home | Current Version | Previous Version | Text Only | Print | Product List | Glossary On
Versions: 1 2 3 4 5 6 7 8 9 10 11 12 13 14 15 16 17 18 19 20 21 22 23 24 25 26 27 28 29 30 31 32 33 34 35 36 37 38 39 40 41 42 43 44 45 46 47 48
000
FTUS43 KMKX 281926 AAA
TAFUES
TAF AMD
KUES 281926Z 2819/2918 03008KT P6SM SCT015 BKN040
      TEMPO 2819/2821 BKN017
     FM282200 02011KT P6SM SCT035 BKN050
     FM290400 01008KT P6SM SCT050 WS020/03040KT
     FM291200 01009KT P6SM SCT045=

USA.gov is the U.S. government's official web portal to all federal, state and local government web resources and services.